This is the latest recevied weather packets stored in our database for station/object DH5RAE-11. If no packets are shown the sender has not sent any weather packets the latest 10 day(s).
| Time | Temp. | Humidity | Pressure | Rain* | Wind** | Luminosity | Snow |
|---|---|---|---|---|---|---|---|
| 1787784094 | 13.89° C | 89% | 1020.9 hPa | 0 mm | - | - | - |
| 1787783493 | 13.89° C | 89% | 1021 hPa | 0 mm | - | - | - |
| 1787782893 | 13.89° C | 89% | 1021 hPa | 0 mm | - | - | - |
| 1787782293 | 14.44° C | 88% | 1021.3 hPa | 0 mm | - | - | - |
| 1787781347 | 14.44° C | 88% | 1021.2 hPa | 0 mm | - | - | - |
| 1787780746 | 14.44° C | 88% | 1021.2 hPa | 0 mm | - | - | - |
| 1787780010 | 14.44° C | 88% | 1021.2 hPa | 0 mm | - | - | - |
| 1787779202 | 14.44° C | 88% | 1021.3 hPa | 0 mm | - | - | - |
| 1787778601 | 14.44° C | 88% | 1021.3 hPa | 0 mm | - | - | - |
| 1787778000 | 14.44° C | 88% | 1021.3 hPa | 0 mm | - | - | - |
| 1787777399 | 14.44° C | 87% | 1021.5 hPa | 0 mm | - | - | - |
| 1787776798 | 14.44° C | 87% | 1021.5 hPa | 0 mm | - | - | - |
| 1787776197 | 15° C | 87% | 1021.5 hPa | 0 mm | - | - | - |
| 1787775045 | 15° C | 87% | 1021.6 hPa | 0 mm | - | - | - |
| 1787774443 | 15° C | 87% | 1021.6 hPa | 0 mm | - | - | - |
| 1787773842 | 15° C | 86% | 1021.7 hPa | 0 mm | - | - | - |
| 1787773241 | 15.56° C | 86% | 1021.7 hPa | 0 mm | - | - | - |
| 1787772503 | 15.56° C | 85% | 1021.6 hPa | 0 mm | - | - | - |
| 1787771835 | 15.56° C | 85% | 1021.6 hPa | 0 mm | - | - | - |
| 1787771095 | 16.11° C | 84% | 1021.5 hPa | 0 mm | - | - | - |
| 1787770425 | 16.67° C | 83% | 1021.5 hPa | 0 mm | - | - | - |
| 1787769686 | 17.22° C | 82% | 1021.4 hPa | 0 mm | - | - | - |
| 1787769017 | 17.22° C | 82% | 1021.3 hPa | 0 mm | - | - | - |
| 1787768348 | 17.78° C | 81% | 1021.1 hPa | 0 mm | - | - | - |
| 1787767540 | 18.89° C | 79% | 1021.2 hPa | 0 mm | - | - | - |
* Rain latest hour (hover to see other rain measurements)
** Current wind speed in m/s (hover to see current wind gust speed)